GW3558 Weather Reports


Display with metric or nautical units.
time (UTC)temp
F
wind
direction
speed
MPH
gust
MPH
rain 1hr
in
rain 24hr
in
rain mn
in
humidity
%
barometer
mb
20260505010030 67 360 2.0 6.0 0.00 0.00 0.00 33 1015.3
20260505005511 67 214 1.0 6.0 0.00 0.00 0.00 31 1015.1
20260505005012 67 82 2.0 4.0 0.00 0.00 0.00 29 1015.2
20260505004540 68 109 0.0 4.0 0.00 0.00 0.00 29 1015.0
20260505004009 68 65 0.0 6.0 0.00 0.00 0.00 29 1015.0
20260505003511 67 337 1.0 6.0 0.00 0.00 0.00 28 1015.0
20260505003052 68 61 1.0 6.0 0.00 0.00 0.00 29 1015.0
20260505002513 68 352 1.0 6.0 0.00 0.00 0.00 28 1015.1
20260505002012 68 238 2.0 7.0 0.00 0.00 0.00 27 1015.1
20260505001530 69 325 1.0 6.0 0.00 0.00 0.00 28 1015.1
20260505001010 69 34 2.0 6.0 0.00 0.00 0.00 27 1015.0
20260505000514 70 164 1.0 6.0 0.00 0.00 0.00 27 1015.1
20260505000034 70 348 1.0 4.0 0.00 0.00 0.00 27 1015.1
20260504235513 70 156 1.0 6.0 0.00 0.00 0.00 27 1015.1
20260504235012 70 360 1.0 6.0 0.00 0.00 0.00 27 1015.1
20260504234533 71 32 1.0 5.0 0.00 0.00 0.00 28 1015.2
20260504234016 71 5 2.0 4.0 0.00 0.00 0.00 28 1015.3
20260504233510 71 348 0.0 5.0 0.00 0.00 0.00 27 1015.2
20260504233035 71 60 2.0 6.0 0.00 0.00 0.00 26 1015.3
20260504232515 71 352 3.0 6.0 0.00 0.00 0.00 24 1015.4
20260504232010 71 360 2.0 5.0 0.00 0.00 0.00 25 1015.4
20260504231530 71 46 2.0 7.0 0.00 0.00 0.00 28 1015.5
20260504231014 70 69 0.0 9.0 0.00 0.00 0.00 32 1015.4
20260504230514 70 194 2.0 6.0 0.00 0.00 0.00 26 1015.5
20260504230027 70 31 2.0 5.0 0.00 0.00 0.00 33 1015.5
20260504225512 70 47 1.0 6.0 0.00 0.00 0.00 32 1015.6
20260504225011 70 34 1.0 6.0 0.00 0.00 0.00 31 1015.5
20260504224534 70 17 1.0 8.0 0.00 0.00 0.00 32 1015.6
20260504224010 70 34 2.0 8.0 0.00 0.00 0.00 28 1015.6
20260504223511 70 104 2.0 11.0 0.00 0.00 0.00 30 1015.7
20260504223046 70 50 3.0 11.0 0.00 0.00 0.00 29 1015.7
20260504222517 71 36 2.0 11.0 0.00 0.00 0.00 30 1015.8
20260504222012 70 84 4.0 11.0 0.00 0.00 0.00 27 1015.6
20260504221530 70 272 2.0 10.0 0.00 0.00 0.00 31 1015.6
20260504221011 70 141 3.0 9.0 0.00 0.00 0.00 30 1015.7
20260504220511 70 72 4.0 9.0 0.00 0.00 0.00 25 1015.8
20260504220036 70 233 2.0 6.0 0.00 0.00 0.00 29 1015.9
20260504215514 70 80 1.0 11.0 0.00 0.00 0.00 31 1016.0
20260504215016 69 177 4.0 11.0 0.00 0.00 0.00 30 1015.8
20260504214534 69 68 1.0 6.0 0.00 0.00 0.00 29 1015.8
20260504214018 70 127 2.0 6.0 0.00 0.00 0.00 29 1016.0
20260504213511 70 74 3.0 5.0 0.00 0.00 0.00 30 1016.0
20260504213036 70 9 2.0 5.0 0.00 0.00 0.00 30 1015.9
20260504212513 70 94 2.0 6.0 0.00 0.00 0.00 29 1016.0
20260504212012 70 106 3.0 6.0 0.00 0.00 0.00 29 1015.9
20260504211536 69 59 2.0 8.0 0.00 0.00 0.00 28 1015.9
20260504211011 69 229 1.0 8.0 0.00 0.00 0.00 26 1015.9
20260504210511 69 123 2.0 6.0 0.00 0.00 0.00 29 1016.0
20260504210043 70 142 1.0 6.0 0.00 0.00 0.00 29 1016.0
20260504205512 69 70 3.0 6.0 0.00 0.00 0.00 29 1016.0
20260504205010 69 115 2.0 7.0 0.00 0.00 0.00 30 1016.0
20260504204535 69 133 2.0 7.0 0.00 0.00 0.00 28 1016.1
20260504204011 69 136 2.0 5.0 0.00 0.00 0.00 29 1016.0
20260504203514 68 164 2.0 8.0 0.00 0.00 0.00 29 1016.0
20260504203033 69 140 3.0 8.0 0.00 0.00 0.00 30 1016.1
20260504202512 69 134 2.0 6.0 0.00 0.00 0.00 33 1016.0
20260504202011 69 96 2.0 7.0 0.00 0.00 0.00 30 1016.1
20260504201534 69 100 2.0 8.0 0.00 0.00 0.00 33 1016.2
20260504201013 69 103 2.0 8.0 0.00 0.00 0.00 31 1016.3
20260504200511 70 88 3.0 8.0 0.00 0.00 0.00 34 1016.2
20260504200032 69 117 2.0 9.0 0.00 0.00 0.00 33 1016.2
20260504195513 69 140 5.0 9.0 0.00 0.00 0.00 28 1016.3
20260504195012 69 146 2.0 5.0 0.00 0.00 0.00 34 1016.3
20260504194532 68 61 2.0 7.0 0.00 0.00 0.00 34 1016.3
20260504194014 69 89 2.0 7.0 0.00 0.00 0.00 35 1016.3
20260504193513 68 107 1.0 6.0 0.00 0.00 0.00 33 1016.3
20260504193035 68 103 3.0 9.0 0.00 0.00 0.00 33 1016.3
20260504192513 68 309 0.0 9.0 0.00 0.00 0.00 30 1016.3
20260504192010 68 110 2.0 7.0 0.00 0.00 0.00 32 1016.4
20260504191537 67 147 3.0 7.0 0.00 0.00 0.00 27 1016.4
20260504191011 67 63 2.0 6.0 0.00 0.00 0.00 27 1016.6
20260504190513 68 12 2.0 8.0 0.00 0.00 0.00 32 1016.6
20260504190038 68 78 2.0 9.0 0.00 0.00 0.00 35 1016.5
20260504185512 68 75 2.0 11.0 0.00 0.00 0.00 28 1016.5
20260504185011 68 263 4.0 11.0 0.00 0.00 0.00 27 1016.5
20260504184547 68 22 2.0 8.0 0.00 0.00 0.00 28 1016.5
20260504184012 68 297 3.0 8.0 0.00 0.00 0.00 28 1016.5
20260504183512 68 346 2.0 8.0 0.00 0.00 0.00 26 1016.5
20260504183036 69 212 1.0 6.0 0.00 0.00 0.00 25 1016.5
20260504182513 69 32 1.0 6.0 0.00 0.00 0.00 28 1016.6
20260504182013 69 338 3.0 6.0 0.00 0.00 0.00 28 1016.5
20260504181536 68 216 2.0 5.0 0.00 0.00 0.00 29 1016.7
20260504181014 68 217 1.0 8.0 0.00 0.00 0.00 28 1016.6
20260504180512 67 13 2.0 7.0 0.00 0.00 0.00 27 1016.6
20260504180035 67 185 1.0 6.0 0.00 0.00 0.00 29 1016.6
20260504175511 68 218 3.0 6.0 0.00 0.00 0.00 28 1016.5
20260504175018 67 53 2.0 9.0 0.00 0.00 0.00 28 1016.5
20260504174536 67 334 4.0 9.0 0.00 0.00 0.00 29 1016.6
20260504174014 66 78 1.0 6.0 0.00 0.00 0.00 31 1016.7
20260504173511 66 328 2.0 6.0 0.00 0.00 0.00 29 1016.8
20260504173037 66 87 2.0 6.0 0.00 0.00 0.00 31 1016.8
20260504172511 66 32 1.0 9.0 0.00 0.00 0.00 30 1016.8
20260504172012 66 342 2.0 9.0 0.00 0.00 0.00 29 1016.9
20260504171542 66 318 2.0 8.0 0.00 0.00 0.00 31 1016.8
20260504171014 67 16 2.0 8.0 0.00 0.00 0.00 31 1016.9
20260504170513 67 240 1.0 5.0 0.00 0.00 0.00 29 1016.8
20260504151013 61 196 1.0 4.0 0.00 0.00 0.00 35 1016.7
20260504150514 61 211 1.0 4.0 0.00 0.00 0.00 34 1016.6
20260504141013 57 233 4.0 6.0 0.00 0.00 0.00 38 1016.5
20260504140517 57 236 3.0 7.0 0.00 0.00 0.00 39 1016.5
20260504130512 56 244 3.0 7.0 0.00 0.00 0.00 40 1016.3
20260504110515 56 241 2.0 6.0 0.00 0.00 0.00 38 1016.5
20260504100514 57 249 3.0 5.0 0.00 0.00 0.00 37 1016.5
20260504081556 57 259 3.0 6.0 0.00 0.00 0.00 37 1017.1
20260504081015 58 245 3.0 5.0 0.00 0.00 0.00 36 1017.1
20260504080528 58 250 3.0 4.0 0.00 0.00 0.00 36 1017.1
20260504070120 59 269 1.0 3.0 0.00 0.00 0.00 35 1017.0
20260504050516 59 249 3.0 5.0 0.00 0.00 0.00 34 1017.3
20260504050106 59 243 3.0 5.0 0.00 0.00 0.00 34 1017.1
20260504045516 59 230 3.0 7.0 0.00 0.00 0.00 34 1017.1
20260504045015 59 220 4.0 7.0 0.00 0.00 0.00 34 1017.1
20260504044555 59 240 4.0 6.0 0.00 0.00 0.00 33 1017.1
20260504044016 60 237 4.0 7.0 0.00 0.00 0.00 34 1017.1
20260504043515 59 246 4.0 7.0 0.00 0.00 0.00 33 1017.1
20260504043051 59 219 5.0 7.0 0.00 0.00 0.00 33 1017.0
20260504042516 60 244 4.0 8.0 0.00 0.00 0.00 33 1017.0
20260504042016 60 249 5.0 8.0 0.00 0.00 0.00 33 1016.9
20260504041551 60 244 5.0 8.0 0.00 0.00 0.00 33 1016.8
20260504041015 60 238 5.0 8.0 0.00 0.00 0.00 32 1016.8
20260504040514 61 247 5.0 8.0 0.00 0.00 0.00 32 1016.7
20260504040132 61 244 5.0 8.0 0.00 0.00 0.00 32 1016.6
20260504035515 61 238 4.0 8.0 0.00 0.00 0.00 32 1016.7
20260504035016 61 215 5.0 7.0 0.00 0.00 0.00 31 1016.6
20260504034556 61 246 5.0 8.0 0.00 0.00 0.00 31 1016.6
20260504034015 61 248 4.0 8.0 0.00 0.00 0.00 30 1016.7
20260504033516 61 254 4.0 7.0 0.00 0.00 0.00 30 1016.7
20260504033056 61 225 4.0 8.0 0.00 0.00 0.00 30 1016.6
20260504032515 61 213 4.0 8.0 0.00 0.00 0.00 30 1016.6
20260504032020 62 228 4.0 8.0 0.00 0.00 0.00 30 1016.7
20260504031601 61 229 4.0 6.0 0.00 0.00 0.00 30 1016.7
20260504031015 62 254 3.0 8.0 0.00 0.00 0.00 31 1016.7
20260504030515 62 257 3.0 8.0 0.00 0.00 0.00 31 1016.7
20260504030056 62 242 2.0 6.0 0.00 0.00 0.00 31 1016.6
20260504025518 62 281 3.0 9.0 0.00 0.00 0.00 31 1016.7
20260504025016 62 242 3.0 9.0 0.00 0.00 0.00 31 1016.8
20260504024553 63 261 2.0 5.0 0.00 0.00 0.00 31 1016.8
20260504024015 63 230 3.0 5.0 0.00 0.00 0.00 30 1016.7
20260504023515 63 242 2.0 4.0 0.00 0.00 0.00 30 1016.6
20260504023316 64 244 2.0 7.0 0.00 0.00 0.00 30 1016.6
20260504022521 64 268 2.0 7.0 0.00 0.00 0.00 30 1016.7
20260504022016 65 271 3.0 6.0 0.00 0.00 0.00 29 1016.7
20260504021551 65 248 2.0 6.0 0.00 0.00 0.00 30 1016.9
20260504021016 66 256 3.0 6.0 0.00 0.00 0.00 29 1016.8
20260504020520 66 223 2.0 7.0 0.00 0.00 0.00 29 1016.8
20260504020113 67 246 3.0 8.0 0.00 0.00 0.00 28 1017.0
20260504015520 68 239 3.0 8.0 0.00 0.00 0.00 29 1017.0
20260504015021 68 254 2.0 5.0 0.00 0.00 0.00 28 1017.1
20260504014604 68 229 1.0 4.0 0.00 0.00 0.00 29 1017.1
20260504014019 69 288 1.0 4.0 0.00 0.00 0.00 28 1017.1
20260504013519 69 261 2.0 4.0 0.00 0.00 0.00 27 1017.3
20260504013109 69 295 1.0 7.0 0.00 0.00 0.00 28 1017.3
20260504012516 69 236 1.0 7.0 0.00 0.00 0.00 28 1017.3
20260504012016 69 306 2.0 5.0 0.00 0.00 0.00 28 1017.4
20260504011611 69 196 1.0 7.0 0.00 0.00 0.00 28 1017.4
20260504011015 69 211 2.0 7.0 0.00 0.00 0.00 28 1017.4
20260504010516 68 251 3.0 6.0 0.00 0.00 0.00 27 1017.5
20260504010440 69 334 2.0 7.0 0.00 0.00 0.00 28 1017.6